Dallas, TX

1:09 AM CST on January 20, 2017 (GMT -0600)
Dallas-Fort Worth International

Weather History for KDFW - December, 2012

Change the Weather History Date:

Saturday, December 22, 2012

  Actual Average Record
Temperature  
Mean Temperature 50 °F 46 °F  
Max Temperature 68 °F 56 °F 81 °F (1964)
Min Temperature 32 °F 36 °F 3 °F (1989)
Degree Days  
Heating Degree Days 15 19  
Month to date heating degree days 218 382  
Since 1 July heating degree days 506 736  
Cooling Degree Days 0 0  
Month to date cooling degree days 28 0  
Year to date cooling degree days 3351 2752  
Growing Degree Days 1 (Base 50)    
Moisture  
Dew Point 29 °F    
Average Humidity 45    
Maximum Humidity 62    
Minimum Humidity 27    
Precipitation  
Precipitation 0.00 in 0.09 in 0.95 in (1937)
Month to date precipitation 0.39 1.86  
Year to date precipitation 29.70 35.45  
Snow  
Snow 0.00 in 0.00 in 2.00 in (1963)
Month to date snowfall 0.1 0.2  
Since 1 July snowfall 0.1 0.2  
Snow Depth 0.00 in    
Sea Level Pressure  
Sea Level Pressure 30.16 in    
Wind  
Wind Speed 11 mph (South)    
Max Wind Speed 25 mph    
Max Gust Speed 31 mph    
Visibility 10 miles    
Events      
T = Trace of Precipitation, MM = Missing Value Source: NWS Daily Summary

Daily Weather History Graph

Daily Weather History Graph

Search for Another Location

Airport or City:

Trip Planner

Search our weather history database for the weather conditions in past years. The results will help you decide how hot, cold, wet, or windy it might be!

Date:

Astronomy

Dec. 22, 2012 Rise Set
Actual Time 7:27 AM CST 5:26 PM CST
Civil Twilight 7:00 AM CST 5:53 PM CST
Nautical Twilight 6:29 AM CST 6:24 PM CST
Astronomical Twilight 5:59 AM CST 6:54 PM CST
Moon 1:36 PM CST (12/22) 2:23 AM CST (12/22)
Length of Visible Light 10h 53m
Length of Day
9h 58m
Waxing Gibbous, 74% of the Moon is Illuminated
Dec 22
Waxing Gibbous
Dec 28
Full
Jan 4
Last Quarter
Jan 11
New
Jan 18
First Quarter

Hourly Weather History & Observations

Time (CST) Temp. Windchill Dew Point Humidity Pressure Visibility Wind Dir Wind Speed Gust Speed Precip Events Conditions
12:53 AM 37.0 °F 29.8 °F 17.1 °F 44% 30.28 in 10.0 mi SSW 10.4 mph - N/A   Scattered Clouds
1:53 AM 37.9 °F 31.5 °F 17.1 °F 43% 30.27 in 10.0 mi SSW 9.2 mph - N/A   Partly Cloudy
2:53 AM 37.0 °F 30.4 °F 17.1 °F 44% 30.26 in 10.0 mi South 9.2 mph - N/A   Clear
3:53 AM 35.1 °F 28.6 °F 18.0 °F 50% 30.25 in 10.0 mi SSW 8.1 mph - N/A   Clear
4:53 AM 35.1 °F 30.1 °F 17.1 °F 48% 30.25 in 10.0 mi South 5.8 mph - N/A   Clear
5:53 AM 35.1 °F - 17.1 °F 48% 30.26 in 10.0 mi Calm Calm - N/A   Clear
6:53 AM 36.0 °F 32.1 °F 16.0 °F 44% 30.27 in 10.0 mi SE 4.6 mph - N/A   Partly Cloudy
7:53 AM 36.0 °F 31.1 °F 18.0 °F 48% 30.27 in 10.0 mi SSE 5.8 mph - N/A   Mostly Cloudy
8:53 AM 43.0 °F 39.5 °F 17.1 °F 35% 30.27 in 10.0 mi South 5.8 mph - N/A   Mostly Cloudy
9:53 AM 48.9 °F - 17.1 °F 28% 30.27 in 10.0 mi South 6.9 mph - N/A   Scattered Clouds
10:53 AM 57.0 °F - 24.1 °F 28% 30.25 in 10.0 mi South 9.2 mph - N/A   Mostly Cloudy
11:53 AM 63.0 °F - 30.0 °F 29% 30.21 in 10.0 mi SSW 15.0 mph - N/A   Mostly Cloudy
12:53 PM 64.9 °F - 33.1 °F 31% 30.16 in 10.0 mi South 17.3 mph 21.9 mph N/A   Mostly Cloudy
1:53 PM 68.0 °F - 34.0 °F 28% 30.10 in 10.0 mi South 18.4 mph 25.3 mph N/A   Overcast
2:53 PM 68.0 °F - 36.0 °F 31% 30.08 in 10.0 mi SSW 21.9 mph - N/A   Overcast
3:53 PM 66.9 °F - 39.9 °F 37% 30.07 in 10.0 mi South 21.9 mph - N/A   Overcast
4:53 PM 64.9 °F - 41.0 °F 42% 30.07 in 10.0 mi South 19.6 mph 24.2 mph N/A   Overcast
5:53 PM 63.0 °F - 41.0 °F 45% 30.06 in 10.0 mi South 11.5 mph - N/A   Overcast
6:53 PM 62.1 °F - 42.1 °F 48% 30.04 in 10.0 mi South 13.8 mph - N/A   Overcast
7:53 PM 61.0 °F - 43.0 °F 52% 30.04 in 10.0 mi South 11.5 mph - N/A   Overcast
8:53 PM 61.0 °F - 43.0 °F 52% 30.04 in 10.0 mi South 9.2 mph - N/A   Overcast
9:53 PM 59.0 °F - 43.0 °F 55% 30.04 in 10.0 mi South 10.4 mph - N/A   Overcast
10:53 PM 57.9 °F - 44.1 °F 60% 30.03 in 10.0 mi South 11.5 mph - N/A   Mostly Cloudy
11:53 PM 57.0 °F - 45.0 °F 64% 30.00 in 10.0 mi South 11.5 mph - N/A   Mostly Cloudy